Regional Weather Roundup
Issued by NWS

Home | Current Version | Previous Version | Graphics & Text | Print | Product List | Glossary On
Versions: 1 2 3 4 5 6 7 8 9 10 11 12 13 14 15 16 17 18 19 20 21 22 23 24 25 26 27 28 29 30 31 32 33 34 35 36 37 38 39 40 41 42 43 44 45 46 47 48 49 50
000
ASUS43 KLOT 180712
RWRIL

ILLINOIS REGIONAL WEATHER ROUNDUP
NATIONAL WEATHER SERVICE CHICAGO/ROMEOVILLE IL
100 AM CST WED JAN 18 2017

NOTE: "FAIR" INDICATES FEW OR NO CLOUDS BELOW 12,000 FEET WITH NO
SIGNIFICANT WEATHER AND/OR OBSTRUCTIONS TO VISIBILITY.

* THESE STATIONS ARE NOT UNDER NWS QUALITY CONTROL. THEY ALSO MAY NOT
  REPORT WEATHER SUCH AS PRECIPITATION OR FOG.

ILZ001-002-007-009-015-016-024-180800-
NORTHWEST ILLINOIS

CITY           SKY/WX    TMP DP  RH WIND       PRES   REMARKS
MOLINE         CLOUDY    35  32  88 W9        30.10R WCI  28
STERLING*      CLOUDY    34  33  96 W10       30.08R FOG     WCI  26
SAVANNA*       CLOUDY    34  33  96 W7        30.07R FOG     WCI  28
$$

ILZ003-004-008-010-011-017-018-180800-
NORTH CENTRAL ILLINOIS

CITY           SKY/WX    TMP DP  RH WIND       PRES   REMARKS
ROCKFORD       CLOUDY    35  33  92 W9        30.05S FOG     WCI  28
FREEPORT*      CLOUDY    33  33  99 W6        30.06R FOG     WCI  27
ROCHELLE*      CLOUDY    33  33  99 W9        30.05S FOG     WCI  25
DE KALB*       CLOUDY    33  33  98 W12       30.04R FOG     WCI  25
$$

ILZ005-006-012>014-019>023-180800-
NORTHEAST ILLINOIS

CITY           SKY/WX    TMP DP  RH WIND       PRES   REMARKS
CHICAGO-OHARE  CLOUDY    35  33  92 W8        30.02R FOG     WCI  29
CHICAGO-MIDWAY CLOUDY    34  32  92 W7        30.03R FOG     WCI  28
AURORA         CLOUDY    35  33  92 W12       30.04R FOG     WCI  27
LANSING*       CLOUDY    34  34  99 W8        30.04R FOG     WCI  28
JOLIET*        CLOUDY    35  34  96 W6        30.07R FOG     WCI  30
WAUKEGAN       CLOUDY    35  33  92 W7        30.00R FOG     WCI  29
DUPAGE AIRPORT CLOUDY    34  32  92 W12       30.02R FOG     WCI  25
KANKAKEE*      CLOUDY    34  34  99 W9        30.08R FOG     WCI  27
WHEELING       CLOUDY    35  33  92 W7        30.03R WCI  29
MORRIS*        CLOUDY    34  32  94 W10       30.06R FOG     WCI  26
ROMEOVILLE*    CLOUDY    33  33 100 W9        30.05R FOG     WCI  26
NORTHERLY ISL    N/A     36  33  89 W8          N/A  WCI  30
$$

LMZ740>746-180800-
SOUTHERN LAKE MICHIGAN

STATION/POSITION SKY/WX   TEMP    WIND        PRES    VSBY  WAVE
                          AIR SEA DIR/SP/G                  HT/PER
                          (F)     (DEG/KT/KT) (MB)    (MI)  (FT/S)
HARRISON CRIB              36     280/ 14/ 17   N/A
BURNHAM HARBOR             35     280/  6/ 13   N/A
CALUMET HARBOR             35     250/  6/ 12 1016.2R
BURNS HARBOR               34     270/ 10/ 12 1017.3R
$$

ILZ025>027-034>036-040-047-049-050-058-095>099-180800-
WEST-CENTRAL ILLINOIS

CITY           SKY/WX    TMP DP  RH WIND       PRES   REMARKS
QUINCY         CLOUDY    37  33  85 W7        30.15S WCI  32
GALESBURG*     CLOUDY    33  33 100 W9        30.12R FOG     WCI  26
MACOMB*        CLOUDY    35  35  99 W6        30.16R FOG     WCI  30
JACKSONVILLE*  CLOUDY    37  34  87 W12       30.15S WCI  30
PITTSFIELD*    CLOUDY    38  34  85 W8        30.17R WCI  32
$$

ILZ028>032-037-038-041>044-048-051>054-059>061-180800-
CENTRAL ILLINOIS

CITY           SKY/WX    TMP DP  RH WIND       PRES   REMARKS
PONTIAC        CLOUDY    35  35 100 W13       30.10R WCI  26
BLOOMINGTON    CLOUDY    34  33  96 W20       30.11R WCI  23
DECATUR        CLOUDY    37  36  96 W14       30.13R WCI  28
PEORIA         CLOUDY    35  33  92 W9        30.13R WCI  28
LACON*         CLOUDY    33  33  98 W7        30.11R FOG     WCI  27
LINCOLN*       CLOUDY    38  37  93 W6        30.13R WCI  34
SPRINGFIELD    CLOUDY    39  35  86 W10       30.15R WCI  32
TAYLORVILLE    CLOUDY    37  35  91 W10       30.15R WCI  30
$$

ILZ033-039-045-046-055>057-062-063-180800-
EAST-CENTRAL ILLINOIS

CITY           SKY/WX    TMP DP  RH WIND       PRES   REMARKS
CHAMPAIGN      CLOUDY    36  34  92 W13       30.11R WCI  27
RANTOUL*       CLOUDY    37  36  96 W13G18    30.11R FOG     WCI  29
MATTOON        CLOUDY    37  35  92 W15       30.12R WCI  28
PARIS*         CLOUDY    37  36  96 W15       30.12S WCI  27
$$

ILZ079-100>102-180800-
SOUTHWEST ILLINOIS

CITY           SKY/WX    TMP DP  RH WIND       PRES   REMARKS
ALTON          CLOUDY    38  35  90 W10       30.18R WCI  31
BELLEVILLE     CLOUDY    40  39  95 W6        30.17R
CAHOKIA*       CLOUDY    41  35  79 W7        30.18R
SPARTA*        CLOUDY    40  35  85 NW8       30.20R
$$

ILZ064>066-069>071-074>076-080>082-084>086-088>090-092>094-180800-
SOUTH-CENTRAL ILLINOIS

CITY           SKY/WX    TMP DP  RH WIND       PRES   REMARKS
CARBONDALE     CLOUDY    41  38  89 W7        30.19S
CAIRO*         CLOUDY    44  40  85 W6        30.18S
EFFINGHAM*     CLOUDY    39  38  97 W14       30.17R WCI  30
MARION         CLOUDY    43  41  93 CALM      30.19S
MT. VERNON     CLOUDY    40  36  86 W7        30.18R
CENTRALIA*     CLOUDY    40  37  89 W9        30.17R
SALEM*         CLOUDY    41  37  85 W9        30.16S
METROPOLIS*    CLOUDY    45  40  83 CALM      30.18S
$$

ILZ067-068-072-073-078-083-087-091-180800-
SOUTHEAST ILLINOIS

CITY           SKY/WX    TMP DP  RH WIND       PRES   REMARKS
LAWRENCEVILLE  CLOUDY    40  37  89 W10       30.15R
FLORA*         CLOUDY    41  37  85 W9        30.17S
FAIRFIELD*     CLOUDY    40  37  89 W3        30.17R
HARRISBURG*    CLOUDY    42  38  86 W10       30.19R
ROBINSON*      CLOUDY    38  35  89 NW15      30.15R WCI  30
CARMI*         CLOUDY    41  39  92 W10       30.17R
$$

ABBREVIATIONS USED IN REMARKS
   TC - TEMPERATURE IN CELSIUS
  WCI - WIND CHILL INDEX
   HX - HEAT INDEX
  VSB - VISIBILITY
$$




USA.gov is the U.S. government's official web portal to all federal, state and local government web resources and services.